Weather History for CWSP - January, 2013

Change the Weather History Date:

Sunday, January 27, 2013

  Actual Average Record
Temperature  
Mean Temperature 42 °F -  
Max Temperature 43 °F - - ()
Min Temperature 40 °F - - ()
Degree Days  
Heating Degree Days 24    
Moisture  
Dew Point 39 °F    
Average Humidity 90    
Maximum Humidity 95    
Minimum Humidity 83    
Precipitation  
Precipitation 0.16 in - - ()
Sea Level Pressure  
Sea Level Pressure 29.98 in    
Wind  
Wind Speed 29 mph ()    
Max Wind Speed 34 mph    
Max Gust Speed -    
T = Trace of Precipitation, MM = Missing Value Source: Averaged Metar Reports

Daily Weather History Graph

Daily Weather History Graph

Search for Another Location

Airport or City:

Trip Planner

Search our weather history database for the weather conditions in past years. The results will help you decide how hot, cold, wet, or windy it might be!

Date:

Astronomy

Jan. 27, 2013 Rise Set
Actual Time 7:50 AM PST 5:07 PM PST
Civil Twilight 7:16 AM PST 5:41 PM PST
Nautical Twilight 6:38 AM PST 6:19 PM PST
Astronomical Twilight 6:01 AM PST 6:56 PM PST
Moon 6:16 PM PST (1/27) 7:39 AM PST (1/27)
Length of Visible Light 10h 25m
Length of Day
9h 17m
Full, 100% of the Moon is Illuminated
Jan 27
Full
Feb 3
Last Quarter
Feb 9
New
Feb 17
First Quarter
Feb 25
Full

Hourly Weather History & Observations

Time (PST) Temp. Windchill Dew Point Humidity Pressure Visibility Wind Dir Wind Speed Gust Speed Precip Events Conditions
12:00 AM 41.9 °F 30.4 °F 39.7 °F 92% 30.01 in - North 34.5 mph - N/A   Unknown
1:00 AM 41.2 °F 29.4 °F 38.7 °F 91% 30.00 in - North 34.5 mph - N/A   Unknown
2:00 AM 41.4 °F 29.6 °F 39.2 °F 92% 30.01 in - North 34.5 mph - N/A   Unknown
3:00 AM 42.1 °F 30.8 °F 39.6 °F 91% 30.01 in - North 33.4 mph - N/A   Unknown
4:00 AM 41 °F - 39 °F 89% 30.00 in - Calm Calm - -  
4:00 AM 41.4 °F 29.6 °F 38.8 °F 91% 30.00 in - North 34.5 mph - 0.02 in   Unknown
5:00 AM 41.4 °F 29.8 °F 39.0 °F 91% 30.00 in - North 33.4 mph - N/A   Unknown
6:00 AM 40.6 °F 28.6 °F 39.0 °F 94% 29.99 in - North 34.5 mph - 0.02 in   Unknown
7:00 AM 42.4 °F 31.6 °F 38.8 °F 87% 29.99 in - North 31.1 mph - N/A   Unknown
8:00 AM 42.6 °F 32.0 °F 39.6 °F 89% 29.99 in - North 29.9 mph - N/A   Unknown
9:00 AM 41.4 °F 30.1 °F 38.5 °F 89% 30.00 in - North 31.1 mph - 0.03 in   Unknown
10:00 AM 42 °F - 38 °F 83% 30.00 in - Calm Calm - -  
10:00 AM 41.5 °F 30.4 °F 38.5 °F 89% 30.00 in - North 31.1 mph - 0.02 in   Unknown
11:00 AM 41.7 °F 30.6 °F 37.9 °F 86% 30.01 in - North 31.1 mph - 0.04 in   Unknown
12:00 PM 41.2 °F 30.3 °F 38.1 °F 89% 29.99 in - North 28.8 mph - 0.03 in   Unknown
1:00 PM 42.1 °F 31.5 °F 38.3 °F 86% 29.97 in - North 28.8 mph - N/A   Unknown
2:00 PM 40.8 °F 28.9 °F 37.9 °F 89% 29.96 in - North 34.5 mph - 0.02 in   Unknown
3:00 PM 40.6 °F 28.6 °F 38.3 °F 91% 29.96 in - North 34.5 mph - 0.02 in   Unknown
4:00 PM 42 °F - 39 °F 85% 29.96 in - Calm Calm - -  
4:00 PM 41.9 °F 30.7 °F 39.0 °F 90% 29.96 in - North 32.2 mph - 0.02 in   Unknown
5:00 PM 40.8 °F 29.2 °F 38.5 °F 91% 29.96 in - North 32.2 mph - 0.07 in   Unknown
6:00 PM 41.5 °F 30.6 °F 39.4 °F 92% 29.96 in - North 29.9 mph - 0.07 in   Unknown
7:00 PM 41.5 °F 30.2 °F 40.1 °F 95% 29.97 in - North 32.2 mph - N/A   Unknown
8:00 PM 41.9 °F 30.5 °F 40.3 °F 94% 29.96 in - North 33.4 mph - N/A   Unknown
9:00 PM 41.7 °F 30.3 °F 39.7 °F 93% 29.96 in - North 33.4 mph - N/A   Unknown
10:00 PM 42 °F - 38 °F 83% 29.97 in - Calm Calm - -  
10:00 PM 41.5 °F 29.9 °F 38.5 °F 89% 29.97 in - North 34.5 mph - N/A   Unknown
11:00 PM 42.1 °F 30.6 °F 38.3 °F 86% 29.97 in - North 34.5 mph - N/A   Unknown